TimeCDT,TemperatureF,Dew PointF,Humidity,Sea Level PressureIn,VisibilityMPH,Wind Direction,Wind SpeedMPH,Gust SpeedMPH,PrecipitationIn,Events,Conditions,WindDirDegrees,DateUTC
12:53 AM,55.9,39.9,55,30.16,10.0,North,4.6,-,N/A,,Clear,350,2013-05-12 05:53:00
1:53 AM,54.0,39.0,57,30.16,10.0,North,3.5,-,N/A,,Clear,360,2013-05-12 06:53:00
2:53 AM,53.1,39.9,61,30.16,10.0,North,3.5,-,N/A,,Clear,360,2013-05-12 07:53:00
3:53 AM,51.1,39.9,66,30.17,10.0,North,5.8,-,N/A,,Clear,350,2013-05-12 08:53:00
4:53 AM,50.0,37.9,63,30.19,10.0,North,4.6,-,N/A,,Clear,360,2013-05-12 09:53:00
5:53 AM,46.9,39.0,74,30.20,10.0,North,5.8,-,N/A,,Clear,350,2013-05-12 10:53:00
6:53 AM,50.0,39.0,66,30.22,10.0,North,5.8,-,N/A,,Clear,350,2013-05-12 11:53:00
7:53 AM,53.6,39.2,58,30.25,10.0,North,5.8,-,N/A,,Clear,360,2013-05-12 12:53:00
8:53 AM,57.9,35.1,42,30.26,10.0,NE,8.1,-,N/A,,Clear,40,2013-05-12 13:53:00
9:53 AM,60.8,33.8,36,30.26,10.0,Variable,6.9,-,N/A,,Clear,0,2013-05-12 14:53:00
10:53 AM,61.0,30.9,32,30.25,10.0,North,5.8,-,N/A,,Clear,360,2013-05-12 15:53:00
11:53 AM,63.0,36.0,37,30.24,10.0,NE,8.1,-,N/A,,Clear,50,2013-05-12 16:53:00
12:53 PM,63.0,34.0,34,30.23,10.0,North,8.1,-,N/A,,Clear,360,2013-05-12 17:53:00
1:53 PM,64.9,35.1,33,30.22,10.0,North,8.1,-,N/A,,Clear,10,2013-05-12 18:53:00
2:53 PM,66.0,37.0,34,30.19,10.0,Variable,3.5,-,N/A,,Clear,0,2013-05-12 19:53:00
3:53 PM,66.9,35.1,31,30.19,10.0,Calm,Calm,-,N/A,,Clear,0,2013-05-12 20:53:00
4:53 PM,66.0,36.0,33,30.19,10.0,West,10.4,-,N/A,,Clear,260,2013-05-12 21:53:00
5:53 PM,66.0,34.0,30,30.17,10.0,South,8.1,-,N/A,,Clear,170,2013-05-12 22:53:00
6:53 PM,64.0,37.0,37,30.16,10.0,SSW,10.4,-,N/A,,Clear,200,2013-05-12 23:53:00
7:53 PM,62.1,39.0,43,30.15,10.0,South,3.5,-,N/A,,Clear,180,2013-05-13 00:53:00
8:53 PM,53.1,44.1,71,30.16,10.0,Calm,Calm,-,N/A,,Clear,0,2013-05-13 01:53:00
9:53 PM,50.0,44.1,80,30.17,10.0,Calm,Calm,-,N/A,,Clear,0,2013-05-13 02:53:00
10:53 PM,50.0,43.0,77,30.17,10.0,West,3.5,-,N/A,,Clear,260,2013-05-13 03:53:00
11:53 PM,48.9,43.0,80,30.18,10.0,Calm,Calm,-,N/A,,Clear,0,2013-05-13 04:53:00